Карточка аэропорта UWGG

Внимание!
Информация на этой странице в стадии наполнения.
Если вы не увидели какой-то информации, или заметили неточность - пожалуйста сообщите нам!
Спасибо!
Команда RU-STAFF
Название аэропортаСтригино
Название аэропорта (англ.)Strigino
Превышение256 ft. (78 m.)
Координаты56°13.8', 43°47.202'
Высота перехода5000 ft
Эшелон переходаQNH>=1013hPa:FL060; QNH<1013hPa:FL070; QNH<977hPa:FL080
Коды ответчика2120-2147
Зона ОрВДМосква РПИ (UUWV)
Данные METARUWGG 271000Z 23007MPS 9000 DRSN OVC008 M04/M06 Q1018 R18L/490038 NOSIG
Проноз погоды (TAF)UWGG 270754Z 2709/2809 23006G14MPS 6000 -SN OVC010 TXM03/2712Z TNM05/2721Z TEMPO 2709/2721 2500 -SN BR OVC005 PROB40 TEMPO 2709/2721 -FZRA OVC003 BECMG 2721/2723 02003MPS
NOTAMshow/hide NOTAM
AWOS   TABLE

Информация о ВПП

ВПП Длина ВПП (м.) Покрытие Курс ВПП Частота ILS
18L3000Цементобетон179108.1
36R3000Цементобетон359110.5
18R2806Асфальтобетон179109.9
36L2806Асфальтобетон359109.5

Диспетчерские позиции

Позывной Наименование органа УВД Частота
UWGG_TWRНижний-Вышка120.400
UWGG_R_APPНижний-Круг120.800
UWGG_GNDНижний-Руление121.800
UWGG_APPНижний-Подход124.700



Спутниковое изображение